Theta_e
352 353 354 355 355 356 356 355 354 353 353 353 351 350 351 351 349 349 350 350 351 350 349 350 349 349 351 350 349 349 348 345 343 345 346 347 346 345 345 344 344 344 343
352 353 354 355 355 355 354 352 353 352 351 351 352 352 351 350 352 351 351 351 351 350 350 349 349 349 349 349 350 349 349 348 346 346 347 347 348 347 348 347 345 346 346
343 347 355 356 353 347 343 345 344 343 342 345 348 348 347 349 350 350 350 350 350 350 351 351 350 350 350 350 349 349 349 348 347 346 347 347 348 348 348 348 348 346 345
353 352 351 346 342 342 342 342 341 341 341 341 341 341 342 343 342 342 343 348 350 350 350 350 350 350 350 349 349 349 349 348 348 347 347 347 347 348 347 347 347 346 346
348 345 343 342 342 341 340 340 339 339 339 338 338 338 339 340 340 340 340 340 340 341 342 344 345 345 345 343 342 343 346 347 347 347 346 346 347 347 347 347 346 347 347
342 342 341 340 339 338 337 336 336 336 336 337 337 337 338 336 336 337 337 338 337 337 338 338 338 338 337 338 338 338 339 340 340 342 343 344 345 345 343 345 346 346 347
341 339 339 338 337 336 335 334 333 332 331 331 332 333 332 332 332 332 332 333 334 334 334 335 336 337 337 336 336 336 337 338 338 337 340 341 342 339 339 342 342 345 346
339 338 337 336 335 334 333 332 330 328 327 326 327 327 329 330 330 330 330 330 330 331 332 332 333 334 334 335 334 334 335 335 335 334 333 334 335 336 340 341 344 341 344
338 337 336 335 333 330 328 328 326 326 327 328 329 328 329 328 328 328 327 327 327 328 328 329 331 332 331 331 330 330 331 334 332 332 331 331 332 332 333 332 333 338 339
337 336 334 332 328 327 327 326 326 328 329 328 329 327 325 324 323 324 323 322 323 323 323 323 323 324 324 325 324 323 325 328 326 328 330 329 328 328 329 330 331 335 337
335 333 331 328 327 327 326 325 327 325 325 326 325 322 320 318 317 318 318 317 317 317 318 319 320 320 321 321 321 321 322 322 324 325 325 326 327 329 329 329 332 333 337
333 330 328 326 325 325 325 324 324 324 323 322 323 320 316 315 315 315 314 314 314 315 317 318 319 319 321 321 322 322 324 325 326 328 328 328 330 330 331 332 333 334 334
331 328 327 325 325 324 323 322 322 321 321 321 320 316 315 313 312 313 313 314 315 316 316 316 317 317 318 318 317 320 322 322 323 325 325 327 328 328 328 328 329 330 332
330 326 325 325 324 323 322 321 321 320 320 318 316 314 311 310 311 313 312 314 315 315 315 313 313 313 312 311 313 312 311 313 313 313 315 317 320 323 326 328 328 329 331
327 325 324 324 323 322 321 321 320 320 319 318 314 312 311 309 307 308 310 311 312 311 312 311 310 309 309 308 308 308 308 309 309 310 311 312 312 314 316 317 320 325 329
324 324 324 324 324 321 321 320 320 319 320 317 314 312 310 308 308 308 310 310 310 310 309 309 307 307 306 305 306 306 305 305 306 308 309 309 308 309 310 312 314 316 319
323 324 324 323 320 320 319 319 319 319 317 315 314 312 309 307 308 308 309 309 310 307 307 306 305 305 304 304 304 304 304 303 304 305 308 308 307 307 308 309 310 312 313
323 323 322 322 321 320 320 320 319 319 317 315 314 312 311 308 307 306 308 308 306 305 304 304 304 303 303 303 303 302 302 302 302 303 304 304 305 305 307 308 309 309 310
321 321 321 318 314 318 319 321 319 319 318 316 314 313 311 310 308 307 306 308 308 307 306 306 306 307 307 306 305 304 303 301 301 302 303 303 302 303 304 305 306 306 308
323 322 321 316 313 316 317 317 312 314 317 317 315 314 312 310 309 308 307 306 307 308 308 308 307 307 307 308 308 307 305 301 300 300 300 301 301 301 302 302 304 305 307
321 319 314 313 312 311 311 311 313 316 318 316 314 314 313 310 310 309 308 307 308 308 308 308 308 308 308 308 308 308 307 304 299 299 300 300 301 300 301 302 303 305 307
319 317 316 312 310 310 310 310 314 315 313 311 311 313 313 310 310 310 309 308 308 308 308 308 308 308 308 308 308 308 308 305 299 298 298 299 300 300 300 301 302 304 305
315 315 313 311 311 311 311 310 311 311 310 310 310 311 311 310 310 309 309 309 308 308 308 308 308 308 308 308 308 308 307 303 298 297 297 298 298 297 298 299 300 302 303
314 312 312 312 312 311 311 311 311 311 310 310 310 310 310 310 309 309 309 309 309 309 308 308 309 308 309 309 308 308 306 300 298 298 299 299 299 300 300 300 301 300 301
313 313 312 312 312 312 311 311 312 311 311 311 311 310 310 310 309 309 310 309 309 309 309 308 309 310 309 309 308 306 302 299 300 302 302 302 301 301 301 300 300 300 301
314 315 314 313 312 312 312 312 312 312 312 312 311 311 311 310 311 311 310 310 310 310 310 309 308 310 309 307 306 303 302 301 301 302 301 302 302 301 301 301 301 301 301
Wind_Speed
13 11 9 5 4 3 2 2 3 2 4 4 1 5 7 7 7 10 11 11 12 11 13 14 14 14 13 13 11 11 13 16 10 12 14 15 16 15 11 13 17 18 19
11 10 8 5 7 6 6 6 5 4 3 2 3 2 3 6 7 10 11 12 14 14 13 14 14 14 15 15 14 15 15 15 16 13 17 17 17 15 15 16 17 18 20
10 12 12 10 10 11 10 9 9 8 9 9 7 5 4 2 0 4 6 8 11 13 13 13 14 12 14 13 13 15 16 16 18 18 15 18 19 18 19 19 18 19 20
16 18 18 16 13 11 10 7 5 5 4 4 4 4 5 6 6 6 5 2 4 6 8 9 10 11 11 11 12 13 14 14 14 15 15 15 18 18 17 18 21 19 18
23 23 21 19 15 11 8 6 4 2 3 2 1 1 2 1 3 2 3 4 4 4 3 2 2 2 3 5 7 8 8 9 10 10 11 11 13 15 15 14 16 19 21
18 24 22 18 13 9 7 6 5 5 4 4 5 6 6 5 4 4 4 4 4 5 7 8 8 8 8 8 9 10 11 12 12 11 12 11 13 13 14 15 14 8 5
17 13 13 15 12 10 8 6 4 3 3 3 3 3 3 3 4 5 6 6 6 7 8 10 10 10 11 12 12 11 12 13 14 15 15 14 15 18 17 16 16 13 12
12 13 11 12 11 7 5 4 3 2 2 2 2 1 2 4 4 3 4 4 4 5 6 8 9 10 10 11 11 11 11 10 9 9 11 13 14 15 16 18 19 20 20
10 12 10 7 6 3 4 4 3 3 3 3 3 6 8 9 7 6 5 6 6 6 6 6 6 5 6 10 11 13 16 15 14 14 15 17 18 19 18 19 19 15 15
15 14 11 7 4 4 6 5 3 3 4 7 10 10 8 8 6 6 6 7 8 8 7 8 9 11 12 13 16 16 18 21 21 23 23 24 24 24 23 22 21 17 17
16 11 8 5 5 5 5 5 7 9 9 10 12 9 7 7 8 9 11 10 9 10 10 11 13 14 16 18 17 18 19 19 20 21 23 23 23 22 21 18 18 18 17
17 12 8 7 6 6 6 6 5 6 6 8 8 7 7 7 10 11 10 8 7 6 7 8 8 9 8 7 7 7 7 9 11 13 14 13 15 16 17 17 18 19 19
16 12 10 8 7 6 5 7 6 3 7 8 6 5 6 8 11 10 10 9 8 7 7 7 8 8 6 5 6 5 5 8 10 10 11 14 16 16 19 19 19 19 20
14 11 10 9 9 7 6 5 6 6 8 8 6 6 7 8 10 10 12 9 7 6 4 5 7 8 10 10 10 12 12 13 11 12 13 16 18 18 16 15 18 19 18
12 11 12 12 11 9 7 7 8 6 5 6 6 5 6 8 8 7 9 12 9 7 5 8 11 12 12 13 14 14 13 15 17 17 17 17 15 15 15 16 16 19 16
16 15 15 14 13 12 12 10 9 6 6 6 5 4 5 6 9 6 6 7 7 6 9 9 10 10 11 12 12 13 13 15 14 15 18 18 17 16 18 18 16 16 17
18 18 16 15 14 17 16 15 11 9 8 6 4 2 4 6 6 6 5 4 6 8 9 8 9 9 10 10 11 12 13 14 15 12 15 15 15 16 17 18 18 16 17
15 15 15 17 16 15 14 12 11 13 15 11 8 4 1 2 3 5 5 4 6 8 9 8 8 10 10 12 13 14 15 17 17 16 14 13 14 15 16 16 17 19 19
17 17 15 14 13 12 13 13 12 14 16 13 10 8 6 4 2 3 3 1 2 2 2 3 4 5 7 9 12 15 17 17 17 17 16 14 15 15 15 17 18 20 21
17 15 13 13 11 11 12 14 12 13 15 15 13 12 8 7 3 3 5 3 4 3 1 1 2 4 6 8 10 13 16 18 18 18 17 14 13 13 13 15 16 19 19
19 16 13 13 13 12 11 11 10 12 15 12 10 9 8 7 5 6 6 7 8 6 6 6 6 7 7 9 11 13 14 17 17 17 16 16 14 13 13 13 14 15 17
19 19 18 18 13 12 11 9 10 11 8 6 6 7 9 12 12 11 12 11 10 9 9 10 11 11 11 11 12 14 14 16 18 17 17 16 15 15 15 16 16 16 17
19 23 20 17 13 10 8 6 9 10 8 8 9 10 13 17 16 16 14 14 12 11 10 11 12 11 10 11 12 13 13 14 15 15 15 15 15 16 17 17 17 17 17
22 20 19 18 14 10 10 9 11 15 14 14 14 15 15 17 17 16 15 14 15 15 15 14 13 13 13 13 12 12 11 11 11 11 12 13 14 16 17 17 16 17 17
19 17 17 18 17 17 18 17 17 18 18 18 19 21 18 18 19 18 17 16 16 19 19 17 15 14 14 14 12 11 9 8 9 10 11 12 13 15 17 17 17 18 18
16 15 14 18 21 22 23 22 23 21 21 23 19 20 22 22 21 20 20 20 18 18 19 19 17 16 15 13 12 11 10 10 11 11 13 14 14 15 17 18 19 17 18
Wind_Direction
205 215 228 244 224 194 151 126 94 44 16 18 11 202 216 215 217 227 236 240 244 249 244 248 251 255 260 258 257 247 245 231 228 266 276 287 294 300 295 274 277 276 276
199 210 202 194 159 152 128 111 103 98 81 63 47 359 298 236 232 240 248 252 249 246 248 248 253 257 261 264 263 254 252 250 236 249 273 275 283 285 286 286 288 286 286
175 165 162 152 137 127 116 110 106 102 90 86 87 79 67 40 296 267 268 267 263 253 253 255 260 260 261 263 262 263 264 263 259 253 262 277 280 282 281 282 283 286 284
162 149 141 138 132 128 124 120 107 97 92 84 84 82 85 80 78 64 54 5 291 279 276 262 261 260 265 267 268 268 271 269 266 259 263 269 278 284 279 279 285 288 288
155 144 140 136 136 134 128 119 110 94 81 90 89 51 84 57 42 4 352 353 356 359 7 341 315 308 302 297 290 290 286 283 278 270 262 267 272 279 278 290 286 296 292
149 144 138 134 134 124 114 110 109 104 93 81 77 82 90 65 35 16 357 348 331 313 305 300 299 298 296 287 278 276 275 273 270 268 267 259 266 274 287 293 292 290 298
135 134 133 131 131 128 128 122 101 86 76 71 67 59 44 32 16 357 350 344 333 328 320 312 303 299 296 294 292 288 277 272 269 270 266 266 274 278 289 284 283 276 264
155 142 138 133 127 129 128 107 94 53 21 19 39 88 97 78 62 44 16 2 354 350 336 329 319 300 298 299 304 301 292 281 279 278 284 287 287 291 284 282 281 279 278
181 153 149 140 122 128 96 98 93 70 63 68 90 112 105 87 62 42 22 12 1 356 344 341 345 340 323 321 317 314 306 297 294 288 287 287 287 285 285 288 281 272 275
194 169 156 149 144 139 128 125 106 85 101 98 111 115 98 78 47 7 354 344 325 315 314 318 308 299 296 296 303 304 299 297 306 304 299 295 294 290 283 282 286 267 267
190 164 152 153 145 139 140 127 120 111 112 108 112 102 77 43 20 351 338 333 320 309 306 309 310 303 298 295 289 286 287 295 295 298 298 299 301 303 300 294 293 282 267
173 164 156 158 153 147 154 150 149 150 126 123 126 102 58 20 356 350 356 9 8 6 350 358 3 352 350 352 352 332 312 307 310 310 307 312 318 321 319 314 305 297 289
164 161 165 161 155 166 174 168 152 133 136 130 117 83 42 12 5 11 28 37 32 34 30 16 350 338 327 357 7 338 343 348 355 349 343 339 329 322 324 322 320 312 306
166 163 161 163 167 174 175 180 159 140 131 118 93 72 39 16 12 25 25 32 41 41 46 43 24 30 36 25 26 26 24 18 7 358 345 326 319 315 321 325 325 324 319
168 172 176 181 187 188 189 185 180 168 147 128 115 71 42 24 15 28 24 20 26 36 54 46 43 37 32 27 27 21 19 20 20 12 6 357 349 345 334 333 331 327 304
174 179 188 197 197 199 196 178 169 162 154 149 123 70 55 46 38 28 59 47 53 55 55 54 52 42 42 29 28 23 21 14 11 13 15 8 356 349 338 341 343 344 333
184 186 184 186 191 191 193 188 166 162 168 171 147 108 71 64 40 26 57 43 45 56 74 71 69 54 46 38 33 25 18 17 17 10 15 7 360 354 353 349 349 350 347
187 190 191 195 201 200 200 197 193 191 190 193 190 183 160 62 44 35 55 73 77 83 81 67 58 51 39 32 28 23 18 17 16 12 5 357 353 349 345 349 350 346 341
177 184 195 201 210 212 218 216 222 218 211 206 204 209 218 231 293 349 340 55 79 83 59 57 44 26 15 11 9 10 8 6 8 10 8 2 1 356 347 345 341 344 342
190 190 202 203 201 198 197 203 215 216 204 204 222 223 222 229 274 320 352 307 253 257 271 357 359 337 343 350 349 351 356 359 359 360 359 356 353 354 347 343 339 333 331
192 185 186 181 179 189 194 205 206 191 186 207 240 237 243 262 275 272 278 264 261 274 282 289 293 301 313 323 329 332 339 346 349 350 351 352 350 343 343 339 339 341 335
202 200 198 189 188 189 190 193 184 175 192 237 263 245 246 257 255 258 261 269 274 284 291 293 297 297 300 306 316 323 325 335 339 342 344 346 347 349 345 340 338 340 340
206 192 188 188 194 193 192 187 187 196 216 234 249 234 238 251 256 258 262 266 271 280 290 297 297 304 312 307 304 311 313 326 333 338 342 345 348 352 349 341 337 337 337
188 197 199 197 197 198 196 202 207 217 229 235 246 247 243 255 263 269 276 276 271 281 286 291 303 305 305 310 303 305 308 321 331 342 347 353 355 357 355 352 346 339 336
195 200 209 211 209 211 214 218 222 226 235 246 248 255 253 257 262 267 273 280 283 277 281 283 286 298 301 304 299 301 302 308 318 332 340 344 346 348 350 349 347 344 344
208 217 223 218 219 225 227 228 232 235 239 247 255 259 260 259 263 266 268 272 278 285 280 280 279 286 292 292 292 293 291 295 304 316 323 325 328 334 338 339 341 341 340